Location: Martz Observatory
(42.0083°N, 79.0667°W)
Time: 08:10:59
(UTC-04:00)

Cosmos 1869 - Pass Details

Date: 26 May 2018
Orbit: 532 x 552 km, 82.5° (Epoch: 16 October)

Event Time Altitude Azimuth Distance (km) Brightness Sun altitude
Rises 05:01:25 0° 341° (NNW) 2,691 7.1 -7.8°
Reaches altitude 10° 05:03:44 10° 331° (NNW) 1,797 6.1 -7.5°
Maximum altitude 05:07:13 30° 269° (W) 971 4.2 -6.9°
Drops below altitude 10° 05:10:41 10° 207° (SSW) 1,793 5.4 -6.4°
Enters shadow 05:12:23 - 199° (SSW) 2,435 6.1 -6.2°
